This is the latest recevied weather packets stored in our database for station/object W4OCD. If no packets are shown the sender has not sent any weather packets the latest 10 day(s).
| Time | Temp. | Humidity | Pressure | Rain* | Wind** | Luminosity | Snow |
|---|---|---|---|---|---|---|---|
| 1777499321 | 25° C | 85% | 1011.5 hPa | 0 mm | - | 53 W/m² | - |
| 1777498715 | 25.56° C | 82% | 1011.1 hPa | 0 mm | - | 118 W/m² | - |
| 1777498108 | 25.56° C | 84% | 1010.8 hPa | 0 mm | - | 270 W/m² | - |
| 1777497806 | 25.56° C | 84% | 1011.1 hPa | 0 mm | - | 213 W/m² | - |
| 1777496895 | 25.56° C | 84% | 1011.2 hPa | 0 mm | - | 250 W/m² | - |
| 1777496289 | 26.11° C | 80% | 1011.4 hPa | 0 mm | - | 184 W/m² | - |
| 1777495377 | 26.11° C | 81% | 1011.6 hPa | 0 mm | - | 481 W/m² | - |
| 1777495074 | 25.56° C | 84% | 1011.9 hPa | 0 mm | - | 416 W/m² | - |
| 1777494771 | 25.56° C | 83% | 1011.8 hPa | 0 mm | - | 255 W/m² | - |
| 1777494468 | 25° C | 85% | 1012 hPa | 0 mm | - | 268 W/m² | - |
| 1777494164 | 25° C | 84% | 1012.1 hPa | 0 mm | - | 217 W/m² | - |
| 1777493862 | 24.44° C | 86% | 1012.3 hPa | 0 mm | - | 115 W/m² | - |
| 1777493560 | 24.44° C | 86% | 1012.1 hPa | 0 mm | - | 89 W/m² | - |
| 1777493256 | 24.44° C | 86% | 1012.3 hPa | 0 mm | - | 77 W/m² | - |
| 1777492645 | 24.44° C | 86% | 1012.3 hPa | 0 mm | - | 77 W/m² | - |
| 1777492345 | 24.44° C | 86% | 1012.1 hPa | 0 mm | - | 109 W/m² | - |
| 1777491739 | 24.44° C | 85% | 1012.3 hPa | 0 mm | - | 108 W/m² | - |
| 1777491436 | 24.44° C | 85% | 1012.4 hPa | 0 mm | - | 135 W/m² | - |
| 1777491133 | 24.44° C | 85% | 1012.5 hPa | 0 mm | - | 137 W/m² | - |
| 1777490828 | 24.44° C | 85% | 1012.7 hPa | 0 mm | - | 133 W/m² | - |
| 1777490525 | 24.44° C | 84% | 1012.7 hPa | 0 mm | - | 133 W/m² | - |
| 1777490221 | 25° C | 84% | 1012.6 hPa | 0 mm | - | 178 W/m² | - |
| 1777489919 | 24.44° C | 85% | 1012.8 hPa | 0 mm | - | 170 W/m² | - |
| 1777489313 | 24.44° C | 84% | 1012.8 hPa | 0 mm | - | 157 W/m² | - |
| 1777489010 | 24.44° C | 84% | 1013.1 hPa | 0 mm | - | 137 W/m² | - |
* Rain latest hour (hover to see other rain measurements)
** Current wind speed in m/s (hover to see current wind gust speed)